Theta_e
345 347 348 346 344 347 349 347 347 347 345 343 342 340 340 342 341 342 342 350 356 356 359 362 349 358 358 357 356 357 356 354 353 351 349 348 347 346 345 345 345 345 343
341 342 342 338 338 341 345 343 340 341 341 343 344 342 342 342 343 343 344 344 352 354 358 359 361 359 360 359 357 357 356 355 354 352 350 349 348 348 346 344 345 346 344
337 338 337 335 336 338 339 337 336 336 339 341 342 343 346 344 337 340 345 345 345 351 355 356 359 359 360 361 359 357 356 354 354 352 350 348 348 347 348 345 345 346 344
335 334 333 333 334 335 336 334 333 332 333 334 336 337 339 343 344 345 346 346 345 345 346 350 353 355 355 358 361 360 356 354 353 352 350 349 348 348 347 347 347 347 346
333 330 329 330 331 332 331 330 329 329 329 331 333 334 334 339 340 341 340 343 343 342 337 339 345 349 350 350 353 358 357 354 351 351 351 350 349 348 347 347 347 346 346
330 327 326 326 329 328 328 328 326 328 327 328 331 331 330 331 334 334 335 337 339 340 339 338 340 344 350 346 347 350 353 355 353 351 350 348 348 348 348 347 347 346 346
324 324 323 323 325 324 323 325 324 324 324 327 324 324 326 327 326 331 336 334 332 338 337 336 336 336 338 345 347 348 350 353 353 350 348 346 347 347 348 348 347 346 346
321 322 319 318 319 319 318 320 321 320 320 323 319 318 315 319 322 326 328 327 326 331 332 334 335 336 336 340 341 347 350 352 355 354 350 347 347 347 347 347 347 346 346
320 320 318 316 316 316 315 316 317 319 316 318 321 316 312 313 317 323 322 324 323 324 325 327 333 336 336 335 340 342 345 344 348 352 354 349 348 348 348 346 347 346 346
319 320 320 317 316 315 314 315 317 317 315 312 315 319 318 320 313 310 317 320 320 321 321 323 329 334 333 334 339 339 340 341 343 344 347 350 350 349 348 347 345 346 347
319 320 319 318 317 314 314 314 314 314 313 311 312 312 312 313 314 311 308 313 315 318 320 321 326 325 328 327 333 333 337 339 337 338 340 341 343 346 348 347 346 346 347
315 318 320 317 316 316 314 313 312 312 312 311 310 310 311 309 309 308 306 308 309 313 316 318 322 323 324 323 332 335 333 335 331 331 334 336 339 341 342 344 346 346 347
313 316 317 317 315 315 316 312 312 310 311 310 309 309 310 309 311 310 307 305 306 309 312 314 318 321 322 323 323 331 333 329 329 326 329 330 334 336 338 340 341 345 347
315 315 317 317 318 318 317 313 312 311 311 309 307 307 309 310 311 309 307 305 303 304 307 308 313 316 317 319 324 330 326 328 327 326 323 325 328 330 332 335 337 337 339
318 318 318 317 317 316 315 314 313 314 308 307 307 307 307 310 310 310 309 308 310 302 300 307 307 312 314 316 322 325 324 328 329 325 325 324 325 324 327 326 328 332 333
317 318 317 316 315 313 313 311 312 311 308 308 309 308 308 309 309 310 309 308 308 308 302 305 307 308 312 316 321 320 324 327 326 325 324 326 324 323 324 325 325 328 331
313 313 313 313 312 311 310 309 309 313 311 308 306 307 309 312 308 309 308 307 306 306 304 306 307 309 308 313 316 315 317 317 315 322 322 322 320 320 322 322 323 325 327
312 313 311 311 311 311 310 307 308 309 307 306 306 308 309 310 306 307 306 305 305 308 307 305 307 306 307 312 312 316 313 313 313 317 317 318 316 315 316 316 318 319 320
311 310 309 309 309 309 305 305 305 306 308 308 307 305 306 306 308 305 306 304 304 305 306 305 304 304 305 309 309 313 313 311 311 316 314 316 315 314 314 315 315 314 314
308 307 307 308 307 305 304 304 304 305 306 306 304 305 305 305 306 305 306 303 302 300 301 299 300 300 302 305 306 305 307 307 308 310 312 312 312 314 314 314 315 316 313
306 306 306 307 304 304 304 301 301 300 301 301 302 304 304 308 308 306 302 301 300 299 297 296 297 298 300 300 300 303 303 304 305 305 305 307 306 307 309 311 314 316 315
303 303 304 304 302 304 302 303 302 297 298 299 299 300 302 304 303 304 304 305 304 298 295 294 295 294 296 299 300 300 300 298 296 303 302 304 306 307 308 309 312 311 310
300 300 301 301 300 299 300 300 302 297 297 296 296 296 299 304 301 300 300 301 301 304 304 297 293 293 295 298 298 297 298 297 297 302 302 300 305 305 309 312 310 307 306
298 298 299 299 299 300 300 299 299 295 295 295 295 296 296 299 301 300 297 297 297 297 299 300 295 296 298 300 301 303 299 299 300 302 302 299 304 304 307 309 311 309 307
298 298 299 298 298 297 299 298 296 294 294 294 296 297 300 302 300 299 296 294 294 295 301 303 301 300 300 300 303 304 302 299 297 300 302 305 303 302 304 307 311 310 308
297 296 298 298 301 296 298 297 296 294 292 293 295 297 301 299 299 298 294 293 291 294 294 296 297 298 301 300 303 300 302 300 301 299 307 303 301 303 300 305 308 314 313
Wind_Speed
3 4 5 5 5 4 6 6 5 5 6 6 6 5 3 4 5 3 4 12 9 9 12 11 4 17 14 14 13 13 14 15 15 16 16 15 14 15 15 14 13 13 11
4 6 6 6 6 5 4 4 5 6 6 4 6 4 4 5 4 3 2 3 7 9 11 13 11 8 15 14 17 17 17 17 17 17 16 16 16 16 17 15 15 14 13
6 5 4 4 4 4 6 5 6 5 6 7 8 9 7 7 5 5 3 3 6 3 2 8 9 14 15 14 16 16 17 18 17 18 17 17 16 16 17 16 15 13 14
7 6 5 6 5 5 4 4 4 5 5 6 7 7 6 7 8 7 5 4 4 3 6 9 8 11 11 12 13 16 17 18 17 18 17 17 17 17 17 16 15 14 14
8 6 6 6 6 5 5 4 4 3 4 7 7 6 5 5 5 6 7 8 5 5 4 9 18 17 9 10 12 13 15 17 17 19 18 17 18 18 17 17 16 15 14
7 6 5 6 5 6 6 7 5 6 3 7 6 7 5 4 4 5 5 8 7 6 5 3 5 5 8 10 10 13 15 14 16 18 19 18 18 19 18 18 17 17 16
7 7 5 6 5 6 5 6 4 5 5 9 4 5 5 3 7 4 4 5 10 8 5 6 5 4 6 13 15 18 20 19 16 18 17 18 19 21 20 18 18 18 17
6 6 6 5 6 5 7 6 5 4 3 5 5 2 5 5 10 4 6 7 9 6 8 9 7 6 5 5 8 14 14 15 16 14 15 15 18 20 20 20 19 19 18
6 6 6 6 6 5 4 4 5 6 4 4 6 3 4 3 6 4 6 6 8 5 5 6 6 6 6 5 6 6 11 11 13 12 14 15 16 20 20 21 21 20 19
6 6 5 5 5 3 6 4 4 3 4 4 3 3 1 2 3 6 4 4 5 6 6 5 4 4 3 4 8 11 10 11 11 12 13 11 14 16 18 20 21 20 21
3 5 5 4 4 4 4 6 5 6 2 2 2 3 2 2 2 2 5 8 6 5 5 4 5 4 5 5 4 7 13 12 12 12 11 9 9 9 12 16 20 20 20
2 3 4 3 2 2 3 2 3 4 3 2 2 3 1 2 4 2 2 4 5 5 4 5 5 5 5 5 8 10 10 9 10 11 10 9 9 9 8 10 14 21 21
2 3 3 4 3 4 3 4 4 5 4 3 3 2 1 2 2 2 2 3 3 4 3 3 5 4 7 7 6 12 10 9 9 11 10 8 7 8 7 6 7 18 22
1 3 5 6 6 6 5 3 3 3 3 4 7 6 3 4 2 1 2 2 4 3 3 4 4 5 6 7 12 16 6 9 9 10 9 9 7 8 7 6 6 13 19
1 5 5 5 6 6 6 7 4 5 4 4 5 6 3 3 4 4 3 2 3 3 4 4 3 6 8 7 11 8 5 8 10 10 8 7 9 7 8 9 7 7 22
4 6 6 7 7 6 6 6 6 4 5 4 4 7 5 4 5 4 4 4 2 2 3 2 3 4 8 8 11 9 7 9 12 13 11 7 9 9 6 7 8 6 11
6 6 5 6 6 6 6 6 7 6 6 6 6 6 7 7 5 4 4 3 3 2 2 4 2 5 6 8 10 7 7 7 7 12 15 12 12 13 8 6 7 5 1
5 4 5 5 5 5 5 5 5 5 6 7 6 8 9 6 7 5 3 5 3 3 2 4 3 4 5 7 8 8 6 6 6 11 13 12 13 13 11 9 6 6 5
5 4 5 5 6 5 5 5 5 5 5 6 7 7 7 6 6 4 3 4 4 4 1 2 4 2 3 4 7 7 8 7 7 14 11 11 13 14 15 12 9 8 7
5 4 5 5 5 6 6 6 6 7 7 7 6 6 6 7 6 5 4 5 5 5 5 3 3 4 2 4 3 6 9 4 8 8 6 6 11 13 12 13 12 9 9
4 5 5 5 5 5 4 6 6 6 6 7 7 6 6 7 11 9 4 6 6 5 4 5 4 3 3 5 5 4 4 7 6 3 6 8 6 7 8 9 9 11 10
5 5 4 4 4 2 5 8 7 5 6 6 6 7 7 6 8 12 13 15 9 5 4 3 3 4 5 6 3 4 6 4 4 2 5 9 3 8 6 6 9 11 11
3 4 3 2 3 0 5 7 10 5 5 6 6 6 7 3 6 6 11 13 11 13 9 1 3 4 4 4 5 5 5 4 4 5 3 4 3 5 6 7 12 13 13
3 2 3 3 2 2 5 7 9 6 5 6 6 7 5 5 5 6 6 7 7 6 6 4 4 7 6 9 6 4 5 6 5 6 4 4 2 4 5 5 8 10 9
3 2 2 4 4 2 6 7 6 6 5 6 6 6 6 6 7 10 6 7 8 9 9 10 10 11 12 10 6 4 4 2 4 4 1 2 3 4 3 4 5 3 7
3 4 4 4 3 1 5 6 4 3 5 5 6 6 9 8 11 13 5 5 6 8 6 10 11 9 8 7 9 4 4 3 2 4 2 8 2 2 4 3 5 4 5
Wind_Direction
21 32 48 41 27 14 22 13 358 348 339 333 311 281 320 294 271 308 304 298 252 266 249 235 203 241 213 202 217 217 220 217 217 214 213 213 221 222 225 226 229 219 214
36 42 40 35 26 17 22 10 352 344 337 308 295 277 268 298 319 5 308 304 284 241 224 227 201 230 236 202 202 206 214 214 219 220 216 215 215 220 224 227 226 225 213
49 50 48 27 20 11 15 14 3 340 342 339 337 338 341 341 318 313 285 214 246 357 223 222 183 198 218 205 210 209 217 216 215 223 219 216 217 220 220 225 229 230 210
48 44 36 21 9 15 13 3 354 350 346 336 332 324 319 324 323 340 345 297 311 320 355 327 288 242 235 230 227 213 217 221 214 221 220 219 219 217 219 223 225 228 208
47 50 39 23 18 23 13 358 352 347 347 343 326 319 313 316 358 5 351 351 323 320 297 313 291 271 255 259 249 252 238 223 219 220 217 220 223 218 215 219 223 223 212
46 48 37 30 28 32 18 11 2 357 341 338 321 318 313 337 44 14 9 20 15 15 350 325 305 324 304 312 313 298 288 276 238 228 220 219 218 222 217 216 219 221 215
47 46 38 32 23 35 6 11 347 350 356 355 331 338 328 55 29 357 22 29 7 2 355 344 346 351 356 345 317 297 288 287 273 254 231 221 220 222 218 214 216 220 215
56 62 52 39 36 31 19 10 11 343 343 359 353 326 348 335 356 8 33 25 4 350 360 341 333 339 335 314 317 323 324 295 271 252 237 222 224 226 221 216 213 215 214
73 67 59 54 42 40 24 5 4 21 0 331 26 39 350 348 323 337 4 11 353 343 343 343 340 338 341 322 324 328 336 342 340 307 244 234 229 226 224 217 211 213 212
74 72 65 56 52 35 33 15 14 13 18 4 338 1 320 298 345 326 334 335 336 341 334 334 337 348 340 317 340 333 338 338 342 336 326 284 247 244 235 225 215 208 211
69 72 62 51 38 34 29 37 21 21 20 7 353 327 340 317 270 259 311 330 340 332 316 327 321 322 338 336 322 332 351 350 350 342 328 320 314 309 267 240 223 210 210
13 34 36 30 21 12 23 7 17 30 21 41 354 2 326 319 309 293 277 286 298 314 318 317 329 325 319 321 317 330 333 328 340 326 320 311 314 310 317 320 247 219 214
12 358 1 345 332 332 322 352 3 10 348 5 16 324 314 312 277 282 284 288 268 290 319 303 314 325 333 316 296 300 310 319 324 334 335 328 330 317 316 308 290 233 217
168 355 360 358 344 353 324 350 331 339 357 12 1 354 323 330 337 306 263 306 317 306 307 284 303 337 324 317 311 315 301 310 330 330 342 342 336 320 309 300 284 267 176
27 25 17 3 3 11 0 358 353 335 19 359 355 351 334 320 332 322 294 236 267 307 296 316 319 319 328 327 327 318 311 313 329 324 329 342 326 337 316 315 291 300 180
47 40 30 26 26 21 7 6 354 359 18 350 356 357 340 316 330 323 319 318 276 258 291 262 298 308 326 331 342 354 345 357 339 330 316 314 326 330 321 314 322 340 190
49 42 34 31 16 6 0 4 351 17 7 353 349 351 332 344 340 329 331 330 351 12 289 301 286 318 328 350 338 349 352 1 347 6 19 15 360 341 323 328 315 320 264
63 53 27 30 8 1 7 28 13 358 0 351 343 346 340 348 335 343 353 346 345 337 322 314 301 328 339 336 330 341 341 353 341 347 5 7 359 355 348 322 301 299 243
62 26 33 23 7 9 25 15 17 352 349 347 350 335 319 327 323 336 344 350 333 333 304 278 307 281 288 326 337 337 343 341 342 342 351 356 345 339 335 331 313 303 258
59 29 32 37 26 47 29 4 354 341 346 344 342 326 328 330 347 345 350 336 333 337 336 330 308 296 299 310 322 331 334 347 330 332 340 337 326 320 317 310 310 294 267
42 35 33 44 51 55 23 4 350 342 342 332 346 342 344 358 13 12 1 335 340 335 342 326 315 325 308 344 344 321 303 319 319 337 329 343 329 323 313 301 292 280 266
30 30 36 52 71 58 1 6 6 349 338 354 349 337 333 11 357 355 354 348 343 339 322 309 319 321 296 308 297 299 307 317 321 286 348 318 329 316 303 305 300 295 298
19 19 11 59 121 135 22 12 358 2 360 355 340 327 321 349 351 337 342 339 337 340 341 266 302 291 288 290 299 279 273 255 252 274 340 280 311 305 303 320 348 356 9
34 21 21 49 111 39 17 13 2 1 358 343 334 328 328 316 333 337 318 324 318 312 303 309 278 280 278 296 270 276 280 288 285 268 205 260 287 284 301 310 354 359 20
20 360 32 54 72 9 0 2 8 357 342 327 320 320 325 321 313 332 324 316 317 310 309 304 307 301 307 312 301 320 341 1 315 284 323 273 283 286 298 307 332 6 352
22 0 75 75 81 346 307 355 7 347 343 334 325 310 315 330 326 317 311 301 301 289 307 326 326 325 324 315 330 339 307 312 330 311 29 338 303 319 326 304 323 339 345